www.pogodaiklimat.ru

Погода и климат >> Архив погоды >> Бангладеш >> Patuakhali


ПОГОДА в Patuakhali

  • Прогноз погоды в Patuakhali
  • Монитор погоды в Patuakhali
  • Климат города

АРХИВ ПОГОДЫ в Patuakhali

Время (UTC), дата Ветер
(напр.,м/с)
 
Видим.   Явления Облачность Т
(С)
Тd
(С)
f
(%)
Тe
(С)
Тes
(С)
Комфортность P
(гПа)
Po
(гПа)
Тmin
(С)
Tmax
(С)
R
(мм)
R24
(мм)
S
(см)
06 12.10 Ю 1 5000 м {дождь} 9/5 500 м
[Sc diur, vesp As trans]
+29.0 +25.0 79 +42 +47 опасность
перегрева
1011.4 1011.2 10
09 12.10 штиль 0 6000 м 10/5 500 м
[Sc As op]
+29.3 +25.0 78 +42 +43 опасность
перегрева
1009.5 1009.3
00 13.10 ЮВ 1 2000 м дождь 10/8 210 м
[Frnb As op]
+23.7 +23.7 100 +32 +32 очень
душно
1009.5 1009.3 22
03 13.10 ЮВ 1 2000 м дождь 10/8 210 м
[Frnb As op]
+23.7 +23.7 100 +32 +33 очень
душно
1009.5 1009.3 22
09 14.10 С 1 6000 м 5/5 540 м
[Sc diur, vesp]
+29.8 +23.0 67 +40 +44 очень
душно
1009.9 1009.7
12 14.10 штиль 0 5000 м 5/5 540 м
[Sc diur, vesp Ci fib]
+27.0 +24.0 84 +37 +37 очень
душно
1010.0 1009.8 +30.3
15 14.10 штиль 0 5000 м ясно +24.9 +24.0 95 +34 +34 очень
душно
1011.4 1011.2
18 14.10 штиль 0 5000 м ясно +24.0 +24.0 100 +33 +33 очень
душно
1011.7 1011.5
21 14.10 штиль 0 4000 м мгла ясно +23.6 +23.6 100 +32 +32 очень
душно
1011.9 1011.7
00 15.10 штиль 0 2000 м дымка 3/3 600 м
[Sc Ci fib]
+23.2 +23.2 100 +33 +33 очень
душно
1012.5 1012.3
03 15.10 С 1 4000 м мгла ясно +28.2 +24.0 78 +39 +48 очень
душно
1014.7 1014.5 +22.9
06 15.10 С 1 6000 м 4/4 540 м
[Sc diur, vesp]
+30.8 +24.0 67 +42 +54 опасность
перегрева
1013.8 1013.6
09 15.10 штиль 0 6000 м 3/3 540 м
[Sc diur, vesp]
+32.0 +23.0 59 +42 +49 опасность
перегрева
1011.4 1011.3
12 15.10 штиль 0 5000 м 4/4 540 м
[Sc diur, vesp Ci fib]
+28.3 +25.0 82 +41 +41 опасность
перегрева
1011.3 1011.2 +32.6
15 15.10 штиль 0 5000 м мгла ясно +25.7 +25.7 100 +38 +38 очень
душно
1012.7 1012.5
18 15.10 штиль 0 4000 м мгла ясно +25.0 +25.0 100 +36 +36 очень
душно
1012.9 1012.7
21 15.10 штиль 0 3000 м мгла ясно +24.4 +24.4 100 +34 +34 очень
душно
1012.1 1011.9
00 16.10 штиль 0 2000 м ясно +24.0 +24.0 100 +33 +33 очень
душно
1011.7 1011.5
03 16.10 СЗ 1 3000 м мгла {туман} 1/1 540 м
[Sc]
+28.5 +26.0 86 +43 +51 опасность
перегрева
1014.4 1014.2 +23.6
09 16.10 З 1 6000 м 3/3 540 м
[Sc diur, vesp]
+32.3 +22.0 55 +41 +47 опасность
перегрева
1011.0 1010.9
12 16.10 штиль 0 4000 м мгла ясно +27.7 +25.0 85 +40 +40 очень
душно
1011.4 1011.3 +32.7
15 16.10 штиль 0 4000 м мгла ясно +25.5 +25.0 97 +36 +36 очень
душно
1012.9 1012.7
18 16.10 штиль 0 3000 м дымка ясно +24.6 +24.0 96 +34 +34 очень
душно
1012.2 1012.0
00 17.10 штиль 0 2500 м дымка ясно +22.3 +22.3 100 +30 +30 очень
душно
1012.2 1012.0
03 17.10 СЗ 1 4000 м мгла ясно +26.8 +23.0 80 +36 +45 очень
душно
1013.8 1013.6 +22.1
06 17.10 С 1 6000 м 3/3 540 м
[Sc diur, vesp]
+30.0 +21.0 59 +38 +51 опасность
солнечного
удара
1011.6 1011.5
09 17.10 СЗ 1 7000 м 1/1 600 м
[Sc]
+31.3 +18.0 45 +36 +44 очень
душно
1008.8 1008.7
12 17.10 штиль 0 4000 м мгла 1/0
[Ac lent]
+26.8 +24.0 85 +37 +37 очень
душно
1009.5 1009.3 +31.6
15 17.10 штиль 0 4000 м мгла ясно +24.8 +24.8 100 +35 +35 очень
душно
1011.3 1011.1
21 17.10 штиль 0 2000 м дымка ясно +23.2 +23.0 99 +32 +32 очень
душно
1011.1 1010.9
00 18.10 штиль 0 1500 м дымка ясно +22.8 +22.8 100 +31 +31 очень
душно
1011.2 1011.1
03 18.10 З 1 4000 м мгла ясно +28.2 +24.0 78 +39 +48 очень
душно
1012.9 1012.7 +22.3
06 18.10 Ю 1 4500 м мгла 1/1 600 м
[Sc]
+32.2 +21.0 52 +40 +57 опасность
солнечного
удара
1011.6 1011.5
09 18.10 З 1 4500 м мгла 1/1 600 м
[Sc]
+32.4 +21.0 51 +40 +48 очень
душно
1009.1 1009.0
12 18.10 В 1 4000 м мгла ясно +27.7 +24.0 80 +38 +38 очень
душно
1010.3 1010.2 +33.0
15 18.10 штиль 0 4000 м мгла ясно +25.8 +25.0 95 +37 +37 очень
душно
1011.6 1011.4 +23.0 +25.0

 

Местоположение метеостанции Patuakhali (Бангладеш): широта 22.33 долгота 90.33 высота над уровнем моря 3 м.

В архиве по умолчанию представлена погода в Patuakhali за последнюю неделю. Архивные данные за месяц целиком и за предыдущие месяцы, начиная с января 2011 года, Вы можете получить, выбрав интересующий диапазон дат из раскрывающегося списка и нажав кнопку "Ввод!".


*Определитесь, кто Вы:
робот инопланетянин человек

Внимание! Время в таблицах - всемирное. Для получения местного времени необходимо прибавить поправку, которая в Patuakhali равна 6.5 ч.

Смотрите также архив погоды в соседних городах и на ближайших метеорологических станциях:

Погода в Khepupara (Бангладеш) (40 км)
Погода в Barisal (Бангладеш) (47 км)
Погода в Bhola (Бангладеш) (51 км)
Погода в Hatia (Бангладеш) (80 км)
Погода в Mongla (Бангладеш) (90 км)
Погода в Gopalganj Sadar (Бангладеш) (92 км)
Погода в Madaripur (Бангладеш) (95 км)
Погода в Khulna (Бангладеш) (96 км)
Погода в Maijdicourt (Бангладеш) (99 км)
Погода в Chandpur (Бангладеш) (111 км)

Пояснения к столбцам:

Ветер - указаны скорость ветра в м/с - средняя за 10 мин, порывы в срок и между сроками (в фигурных скобках) и направление, откуда дует ветер: С - северный, СВ - северо-восточный, В - восточный, ЮВ - юго-восточный, Ю - южный, ЮЗ - юго-западный, З - западный, СЗ - северо-западный.
Видимость - горизонтальная дальность видимости в метрах или километрах. При видимости от 1 до 10 км при отсутствии осадков обычно наблюдается дымка, при ухудшении видимости до 1 км и менее - туман. В сухую погоду видимость может ухудшаться дымом, пылью или мглою.
Явления - указаны атмосферные явления, наблюдавшиеся в срок или в последний час перед сроком; фигурными скобками обозначены явления, наблюдавшиеся между сроками (за 1-3 часа до срока); квадратными скобками обозначены град или гололедные отложения с указанием их диаметра в мм.
Облачность - указаны через наклонную черту общая и нижняя облачность в баллах и высота нижней границы облаков в метрах; квадратными скобками обозначены формы облаков: Ci - перистые, Cs - перисто-слоистые, Cc - перисто-кучевые, Ac - высококучевые, As - высокослоистые, Sc - слоисто-кучевые, Ns - слоисто-дождевые, Cu - кучевые, Cb - кучево-дождевые. Подробнее классификацию облаков см. в Атласе облаков (PDF).
T - Температура воздуха - температура, измеренная на высоте 2 м над землей.
Td - Температура точки росы - температура, при понижении до которой содержащийся в воздухе водяной пар достигнет насыщения.
f - Относительная влажность воздуха - влажноcть воздуха, измеренная на высоте 2 м над землей.
Te - Эффективная температура - температура, которую ощущает одетый по сезону человек в тени. Характеристика душности погоды. При расчете учитывается влияние влажности воздуха и скорости ветра на теплоощущения человека.
Tes - Эффективная температура на солнце - температура, которую ощущает человек, с поправкой на солнечный нагрев. Характеристика знойности погоды. Зависит от высоты солнца над горизонтом, облачности и скорости ветра. Ночью, в пасмурную погоду, а также при ветре 12 м/с и более поправка равна нулю.
P - Атмосферное давление - приведенное к уровню моря атмосферное давление.
Po - Атмосферное давление - измеренное на уровне метеостанции атмосферное давление.
Tmin - Минимальная температура - минимум температуры воздуха на высоте 2 м над землей.
Tmax - Максимальная температура - максимум температуры воздуха на высоте 2 м над землей.
R - Количество осадков - Количество выпавших осадков за период времени, мм. При наведении курсора мыши на число - период времени, за который выпало указанное количество осадков.
R24 - Количество осадков - Количество выпавших осадков за 24 часа, мм.
S - Снежный покров - Высота снежного покрова, см. При наведении курсора мыши на число - состояние снежного покрова и степень покрытия местности в баллах.